owner,sensor,date,latitude,longitude,vertical_datum,wind_speed,wind_to_direction,wind_speed_of_gust,qcFlag 
LOOP,urn:ioos:station:wmo:lopl1:1,2017-02-01T00:16:00Z,28.8850,-90.0250,10.0,4.1,-9999.0,4.9,'11111222,99999999,11111222' 
LOOP,urn:ioos:station:wmo:lopl1:1,2017-02-01T01:16:00Z,28.8850,-90.0250,10.0,5.3,-9999.0,6.0,'11111222,99999999,11111222' 
LOOP,urn:ioos:station:wmo:lopl1:1,2017-02-01T02:21:00Z,28.8850,-90.0250,10.0,4.7,-9999.0,6.3,'11111222,99999999,11111222' 
LOOP,urn:ioos:station:wmo:lopl1:1,2017-02-01T03:21:00Z,28.8850,-90.0250,10.0,3.9,-9999.0,5.2,'11111222,99999999,11111222' 
LOOP,urn:ioos:station:wmo:lopl1:1,2017-02-01T04:21:00Z,28.8850,-90.0250,10.0,4.5,-9999.0,6.1,'11111222,99999999,11111222' 
LOOP,urn:ioos:station:wmo:lopl1:1,2017-02-01T05:21:00Z,28.8850,-90.0250,10.0,5.1,-9999.0,7.3,'11111222,99999999,11111222' 
LOOP,urn:ioos:station:wmo:lopl1:1,2017-02-01T06:21:00Z,28.8850,-90.0250,10.0,5.4,-9999.0,8.8,'11111222,99999999,11111222' 
LOOP,urn:ioos:station:wmo:lopl1:1,2017-02-01T07:21:00Z,28.8850,-90.0250,10.0,6.2,-9999.0,8.6,'11111222,99999999,11111222' 
LOOP,urn:ioos:station:wmo:lopl1:1,2017-02-01T08:21:00Z,28.8850,-90.0250,10.0,4.9,-9999.0,6.4,'11111222,99999999,11111222' 
LOOP,urn:ioos:station:wmo:lopl1:1,2017-02-01T09:21:00Z,28.8850,-90.0250,10.0,4.0,-9999.0,5.7,'11111222,99999999,11111222' 
LOOP,urn:ioos:station:wmo:lopl1:1,2017-02-01T10:21:00Z,28.8850,-90.0250,10.0,3.5,175.0,5.4,'11111222,11111222,11111222' 
LOOP,urn:ioos:station:wmo:lopl1:1,2017-02-01T11:21:00Z,28.8850,-90.0250,10.0,5.7,-9999.0,6.5,'11111222,99999999,11111222' 
LOOP,urn:ioos:station:wmo:lopl1:1,2017-02-01T12:21:00Z,28.8850,-90.0250,10.0,6.3,-9999.0,7.1,'11111222,99999999,11111222' 
LOOP,urn:ioos:station:wmo:lopl1:1,2017-02-01T13:21:00Z,28.8850,-90.0250,10.0,4.0,-9999.0,5.0,'11111222,99999999,11111222' 
LOOP,urn:ioos:station:wmo:lopl1:1,2017-02-01T14:21:00Z,28.8850,-90.0250,10.0,3.2,-9999.0,4.5,'11111222,99999999,11111222' 
LOOP,urn:ioos:station:wmo:lopl1:1,2017-02-01T15:26:00Z,28.8850,-90.0250,10.0,4.5,-9999.0,6.2,'11111222,99999999,11111222' 
LOOP,urn:ioos:station:wmo:lopl1:1,2017-02-01T16:26:00Z,28.8850,-90.0250,10.0,5.6,-9999.0,7.4,'11111222,99999999,11111222' 
LOOP,urn:ioos:station:wmo:lopl1:1,2017-02-01T17:26:00Z,28.8850,-90.0250,10.0,3.8,-9999.0,5.9,'11111222,99999999,11111222' 
LOOP,urn:ioos:station:wmo:lopl1:1,2017-02-01T18:26:00Z,28.8850,-90.0250,10.0,3.3,-9999.0,4.3,'11111222,99999999,11111222' 
LOOP,urn:ioos:station:wmo:lopl1:1,2017-02-01T19:26:00Z,28.8850,-90.0250,10.0,3.9,-9999.0,5.0,'11111222,99999999,11111222' 
LOOP,urn:ioos:station:wmo:lopl1:1,2017-02-01T20:26:00Z,28.8850,-90.0250,10.0,4.9,-9999.0,5.5,'11111222,99999999,11111222' 
LOOP,urn:ioos:station:wmo:lopl1:1,2017-02-01T21:26:00Z,28.8850,-90.0250,10.0,4.0,-9999.0,4.5,'11111222,99999999,11111222' 
LOOP,urn:ioos:station:wmo:lopl1:1,2017-02-01T22:26:00Z,28.8850,-90.0250,10.0,2.7,-9999.0,3.8,'11111222,99999999,11111222' 
LOOP,urn:ioos:station:wmo:lopl1:1,2017-02-01T23:26:00Z,28.8850,-90.0250,10.0,2.7,-9999.0,3.8,'11111222,99999999,11111222' 
LOOP,urn:ioos:station:wmo:lopl1:1,2017-02-02T00:26:00Z,28.8850,-90.0250,10.0,3.6,-9999.0,4.5,'11111222,99999999,11111222' 
LOOP,urn:ioos:station:wmo:lopl1:1,2017-02-02T01:26:00Z,28.8850,-90.0250,10.0,3.1,-9999.0,4.7,'11111222,99999999,11111222' 
LOOP,urn:ioos:station:wmo:lopl1:1,2017-02-02T02:26:00Z,28.8850,-90.0250,10.0,3.6,160.0,5.1,'11111222,11111222,11111222' 
LOOP,urn:ioos:station:wmo:lopl1:1,2017-02-02T03:26:00Z,28.8850,-90.0250,10.0,2.7,-9999.0,3.9,'11111222,99999999,11111222' 
LOOP,urn:ioos:station:wmo:lopl1:1,2017-02-02T04:31:00Z,28.8850,-90.0250,10.0,3.9,165.0,4.7,'11111222,11111222,11111222' 
LOOP,urn:ioos:station:wmo:lopl1:1,2017-02-02T05:31:00Z,28.8850,-90.0250,10.0,3.8,163.0,4.4,'11111222,11111222,11111222' 
LOOP,urn:ioos:station:wmo:lopl1:1,2017-02-02T06:31:00Z,28.8850,-90.0250,10.0,3.7,179.0,4.2,'11111222,11111222,11111222' 
LOOP,urn:ioos:station:wmo:lopl1:1,2017-02-02T07:31:00Z,28.8850,-90.0250,10.0,3.6,158.0,3.9,'11111222,11111222,11111222' 
LOOP,urn:ioos:station:wmo:lopl1:1,2017-02-02T08:31:00Z,28.8850,-90.0250,10.0,3.6,158.0,3.9,'11111222,11111222,11111222' 
LOOP,urn:ioos:station:wmo:lopl1:1,2017-02-02T09:31:00Z,28.8850,-90.0250,10.0,3.6,158.0,4.2,'11111222,11111222,11111222' 
LOOP,urn:ioos:station:wmo:lopl1:1,2017-02-02T10:31:00Z,28.8850,-90.0250,10.0,3.1,117.0,3.6,'11111222,11111222,11111222' 
LOOP,urn:ioos:station:wmo:lopl1:1,2017-02-02T11:31:00Z,28.8850,-90.0250,10.0,3.5,135.0,4.0,'11111222,11111222,11111222' 
LOOP,urn:ioos:station:wmo:lopl1:1,2017-02-02T12:31:00Z,28.8850,-90.0250,10.0,3.5,122.0,4.2,'11111222,11111222,11111222' 
LOOP,urn:ioos:station:wmo:lopl1:1,2017-02-02T13:31:00Z,28.8850,-90.0250,10.0,3.6,-9999.0,4.1,'11111222,99999999,11111222' 
LOOP,urn:ioos:station:wmo:lopl1:1,2017-02-02T14:31:00Z,28.8850,-90.0250,10.0,4.0,121.0,4.6,'11111222,11111222,11111222' 
LOOP,urn:ioos:station:wmo:lopl1:1,2017-02-02T15:31:00Z,28.8850,-90.0250,10.0,3.4,129.0,4.4,'11111222,11111222,11111222' 
LOOP,urn:ioos:station:wmo:lopl1:1,2017-02-02T16:31:00Z,28.8850,-90.0250,10.0,4.0,126.0,4.3,'11111222,11111222,11111222' 
LOOP,urn:ioos:station:wmo:lopl1:1,2017-02-02T17:36:00Z,28.8850,-90.0250,10.0,3.2,106.0,3.6,'11111222,11111222,11111222' 
LOOP,urn:ioos:station:wmo:lopl1:1,2017-02-02T18:36:00Z,28.8850,-90.0250,10.0,2.7,108.0,3.1,'11111222,11111222,11111222' 
LOOP,urn:ioos:station:wmo:lopl1:1,2017-02-02T19:36:00Z,28.8850,-90.0250,10.0,3.2,107.0,3.5,'11111222,11111222,11111222' 
LOOP,urn:ioos:station:wmo:lopl1:1,2017-02-02T20:36:00Z,28.8850,-90.0250,10.0,2.5,117.0,2.8,'11111222,11111222,11111222' 
LOOP,urn:ioos:station:wmo:lopl1:1,2017-02-02T21:36:00Z,28.8850,-90.0250,10.0,3.4,147.0,3.8,'11111222,11111222,11111222' 
LOOP,urn:ioos:station:wmo:lopl1:1,2017-02-02T22:36:00Z,28.8850,-90.0250,10.0,2.9,129.0,3.2,'11111222,11111222,11111222' 
LOOP,urn:ioos:station:wmo:lopl1:1,2017-02-02T23:36:00Z,28.8850,-90.0250,10.0,4.2,135.0,4.7,'11111222,11111222,11111222' 
LOOP,urn:ioos:station:wmo:lopl1:1,2017-02-03T00:36:00Z,28.8850,-90.0250,10.0,4.2,149.0,4.8,'11111222,11111222,11111222' 
LOOP,urn:ioos:station:wmo:lopl1:1,2017-02-03T01:36:00Z,28.8850,-90.0250,10.0,4.2,152.0,4.6,'11111222,11111222,11111222' 
LOOP,urn:ioos:station:wmo:lopl1:1,2017-02-03T02:36:00Z,28.8850,-90.0250,10.0,4.9,157.0,5.2,'11111222,11111222,11111222' 
LOOP,urn:ioos:station:wmo:lopl1:1,2017-02-03T03:36:00Z,28.8850,-90.0250,10.0,5.0,153.0,5.3,'11111222,11111222,11111222' 
LOOP,urn:ioos:station:wmo:lopl1:1,2017-02-03T04:36:00Z,28.8850,-90.0250,10.0,4.7,175.0,5.3,'11111222,11111222,11111222' 
LOOP,urn:ioos:station:wmo:lopl1:1,2017-02-03T05:41:00Z,28.8850,-90.0250,10.0,2.5,-9999.0,3.8,'11111222,99999999,11111222' 
LOOP,urn:ioos:station:wmo:lopl1:1,2017-02-03T06:41:00Z,28.8850,-90.0250,10.0,3.7,-9999.0,4.5,'11111222,99999999,11111222' 
LOOP,urn:ioos:station:wmo:lopl1:1,2017-02-03T07:41:00Z,28.8850,-90.0250,10.0,2.0,178.0,2.8,'11111222,11111222,11111222' 
LOOP,urn:ioos:station:wmo:lopl1:1,2017-02-03T08:41:00Z,28.8850,-90.0250,10.0,1.7,-9999.0,2.0,'11111222,99999999,11111222' 
LOOP,urn:ioos:station:wmo:lopl1:1,2017-02-03T09:41:00Z,28.8850,-90.0250,10.0,0.8,-9999.0,1.3,'11111222,99999999,11111222' 
LOOP,urn:ioos:station:wmo:lopl1:1,2017-02-03T10:41:00Z,28.8850,-90.0250,10.0,1.5,-9999.0,2.7,'11111222,99999999,11111222' 
LOOP,urn:ioos:station:wmo:lopl1:1,2017-02-03T11:41:00Z,28.8850,-90.0250,10.0,2.4,-9999.0,2.8,'11111222,99999999,11111222' 
LOOP,urn:ioos:station:wmo:lopl1:1,2017-02-03T12:41:00Z,28.8850,-90.0250,10.0,1.3,-9999.0,2.0,'11111222,99999999,11111222' 
LOOP,urn:ioos:station:wmo:lopl1:1,2017-02-03T13:41:00Z,28.8850,-90.0250,10.0,1.6,-9999.0,2.3,'11111222,99999999,11111222' 
LOOP,urn:ioos:station:wmo:lopl1:1,2017-02-03T14:41:00Z,28.8850,-90.0250,10.0,2.2,-9999.0,2.8,'11111222,99999999,11111222' 
LOOP,urn:ioos:station:wmo:lopl1:1,2017-02-03T15:41:00Z,28.8850,-90.0250,10.0,1.6,-9999.0,2.5,'11111222,99999999,11111222' 
LOOP,urn:ioos:station:wmo:lopl1:1,2017-02-03T16:41:00Z,28.8850,-90.0250,10.0,7.8,4.0,9.4,'11111222,11111222,11111222' 
LOOP,urn:ioos:station:wmo:lopl1:1,2017-02-03T17:46:00Z,28.8850,-90.0250,10.0,8.1,10.0,10.1,'11111222,11111222,11111222' 
LOOP,urn:ioos:station:wmo:lopl1:1,2017-02-03T18:46:00Z,28.8850,-90.0250,10.0,7.5,11.0,9.2,'11111222,11111222,11111222' 
LOOP,urn:ioos:station:wmo:lopl1:1,2017-02-03T19:46:00Z,28.8850,-90.0250,10.0,8.4,8.0,10.2,'11111222,11111222,11111222' 
LOOP,urn:ioos:station:wmo:lopl1:1,2017-02-03T20:46:00Z,28.8850,-90.0250,10.0,8.6,23.0,10.2,'11111222,11111222,11111222' 
LOOP,urn:ioos:station:wmo:lopl1:1,2017-02-03T21:46:00Z,28.8850,-90.0250,10.0,7.9,18.0,9.3,'11111222,11111222,11111222' 
LOOP,urn:ioos:station:wmo:lopl1:1,2017-02-03T22:46:00Z,28.8850,-90.0250,10.0,8.4,20.0,10.0,'11111222,11111222,11111222' 
LOOP,urn:ioos:station:wmo:lopl1:1,2017-02-03T23:51:00Z,28.8850,-90.0250,10.0,7.7,21.0,9.2,'11111222,11111222,11111222' 
LOOP,urn:ioos:station:wmo:lopl1:1,2017-02-04T00:01:00Z,28.8850,-90.0250,10.0,7.2,16.0,7.9,'11111222,11111222,11111222' 
LOOP,urn:ioos:station:wmo:lopl1:1,2017-02-04T01:01:00Z,28.8850,-90.0250,10.0,8.3,22.0,10.2,'11111222,11111222,11111222' 
LOOP,urn:ioos:station:wmo:lopl1:1,2017-02-04T02:01:00Z,28.8850,-90.0250,10.0,9.1,21.0,11.5,'11111222,11111222,11111222' 
LOOP,urn:ioos:station:wmo:lopl1:1,2017-02-04T03:01:00Z,28.8850,-90.0250,10.0,9.8,21.0,11.5,'11111222,11111222,11111222' 
LOOP,urn:ioos:station:wmo:lopl1:1,2017-02-04T04:01:00Z,28.8850,-90.0250,10.0,10.9,23.0,13.1,'11111222,11111222,11111222' 
LOOP,urn:ioos:station:wmo:lopl1:1,2017-02-04T05:01:00Z,28.8850,-90.0250,10.0,11.0,19.0,13.1,'11111222,11111222,11111222' 
LOOP,urn:ioos:station:wmo:lopl1:1,2017-02-04T06:01:00Z,28.8850,-90.0250,10.0,11.4,31.0,11.4,'11111222,11111222,11111222' 
LOOP,urn:ioos:station:wmo:lopl1:1,2017-02-04T07:11:00Z,28.8850,-90.0250,10.0,9.2,36.0,11.6,'11111222,11111222,11111222' 
LOOP,urn:ioos:station:wmo:lopl1:1,2017-02-04T08:11:00Z,28.8850,-90.0250,10.0,8.3,34.0,11.1,'11111222,11111222,11111222' 
LOOP,urn:ioos:station:wmo:lopl1:1,2017-02-04T09:11:00Z,28.8850,-90.0250,10.0,8.4,52.0,10.9,'11111222,11111222,11111222' 
LOOP,urn:ioos:station:wmo:lopl1:1,2017-02-04T10:11:00Z,28.8850,-90.0250,10.0,8.4,51.0,11.7,'11111222,11111222,11111222' 
LOOP,urn:ioos:station:wmo:lopl1:1,2017-02-04T11:11:00Z,28.8850,-90.0250,10.0,8.8,61.0,11.2,'11111222,11111222,11111222' 
LOOP,urn:ioos:station:wmo:lopl1:1,2017-02-04T12:11:00Z,28.8850,-90.0250,10.0,9.9,72.0,11.3,'11111222,11111222,11111222' 
LOOP,urn:ioos:station:wmo:lopl1:1,2017-02-04T13:11:00Z,28.8850,-90.0250,10.0,9.3,62.0,11.2,'11111222,11111222,11111222' 
LOOP,urn:ioos:station:wmo:lopl1:1,2017-02-04T14:11:00Z,28.8850,-90.0250,10.0,8.3,68.0,10.0,'11111222,11111222,11111222' 
LOOP,urn:ioos:station:wmo:lopl1:1,2017-02-04T15:11:00Z,28.8850,-90.0250,10.0,7.5,67.0,9.6,'11111222,11111222,11111222' 
LOOP,urn:ioos:station:wmo:lopl1:1,2017-02-04T16:11:00Z,28.8850,-90.0250,10.0,7.6,63.0,9.2,'11111222,11111222,11111222' 
LOOP,urn:ioos:station:wmo:lopl1:1,2017-02-04T17:11:00Z,28.8850,-90.0250,10.0,6.0,69.0,7.5,'11111222,11111222,11111222' 
LOOP,urn:ioos:station:wmo:lopl1:1,2017-02-04T18:11:00Z,28.8850,-90.0250,10.0,5.1,45.0,7.1,'11111222,11111222,11111222' 
LOOP,urn:ioos:station:wmo:lopl1:1,2017-02-04T19:11:00Z,28.8850,-90.0250,10.0,5.5,69.0,6.9,'11111222,11111222,11111222' 
LOOP,urn:ioos:station:wmo:lopl1:1,2017-02-04T20:11:00Z,28.8850,-90.0250,10.0,5.5,57.0,7.5,'11111222,11111222,11111222' 
LOOP,urn:ioos:station:wmo:lopl1:1,2017-02-04T21:11:00Z,28.8850,-90.0250,10.0,5.3,62.0,6.7,'11111222,11111222,11111222' 
LOOP,urn:ioos:station:wmo:lopl1:1,2017-02-04T22:11:00Z,28.8850,-90.0250,10.0,5.8,68.0,7.3,'11111222,11111222,11111222' 
LOOP,urn:ioos:station:wmo:lopl1:1,2017-02-04T23:11:00Z,28.8850,-90.0250,10.0,6.6,76.0,7.7,'11111222,11111222,11111222' 
LOOP,urn:ioos:station:wmo:lopl1:1,2017-02-05T00:11:00Z,28.8850,-90.0250,10.0,6.0,75.0,7.3,'11111222,11111222,11111222' 
LOOP,urn:ioos:station:wmo:lopl1:1,2017-02-05T01:11:00Z,28.8850,-90.0250,10.0,6.2,88.0,7.5,'11111222,11111222,11111222' 
LOOP,urn:ioos:station:wmo:lopl1:1,2017-02-05T02:11:00Z,28.8850,-90.0250,10.0,5.6,115.0,6.7,'11111222,11111222,11111222' 
LOOP,urn:ioos:station:wmo:lopl1:1,2017-02-05T03:11:00Z,28.8850,-90.0250,10.0,4.9,84.0,6.4,'11111222,11111222,11111222' 
LOOP,urn:ioos:station:wmo:lopl1:1,2017-02-05T04:11:00Z,28.8850,-90.0250,10.0,5.5,84.0,6.3,'11111222,11111222,11111222' 
LOOP,urn:ioos:station:wmo:lopl1:1,2017-02-05T05:11:00Z,28.8850,-90.0250,10.0,6.3,90.0,7.3,'11111222,11111222,11111222' 
LOOP,urn:ioos:station:wmo:lopl1:1,2017-02-05T06:16:00Z,28.8850,-90.0250,10.0,5.6,103.0,6.3,'11111222,11111222,11111222' 
LOOP,urn:ioos:station:wmo:lopl1:1,2017-02-05T07:16:00Z,28.8850,-90.0250,10.0,5.1,79.0,6.0,'11111222,11111222,11111222' 
LOOP,urn:ioos:station:wmo:lopl1:1,2017-02-05T08:16:00Z,28.8850,-90.0250,10.0,5.3,75.0,5.9,'11111222,11111222,11111222' 
LOOP,urn:ioos:station:wmo:lopl1:1,2017-02-05T09:16:00Z,28.8850,-90.0250,10.0,6.0,78.0,6.7,'11111222,11111222,11111222' 
LOOP,urn:ioos:station:wmo:lopl1:1,2017-02-05T10:16:00Z,28.8850,-90.0250,10.0,6.9,81.0,7.7,'11111222,11111222,11111222' 
LOOP,urn:ioos:station:wmo:lopl1:1,2017-02-05T11:16:00Z,28.8850,-90.0250,10.0,5.8,104.0,6.4,'11111222,11111222,11111222' 
LOOP,urn:ioos:station:wmo:lopl1:1,2017-02-05T12:16:00Z,28.8850,-90.0250,10.0,5.1,125.0,5.8,'11111222,11111222,11111222' 
LOOP,urn:ioos:station:wmo:lopl1:1,2017-02-05T13:16:00Z,28.8850,-90.0250,10.0,4.9,125.0,6.0,'11111222,11111222,11111222' 
LOOP,urn:ioos:station:wmo:lopl1:1,2017-02-05T14:16:00Z,28.8850,-90.0250,10.0,4.0,165.0,5.3,'11111222,11111222,11111222' 
LOOP,urn:ioos:station:wmo:lopl1:1,2017-02-05T15:16:00Z,28.8850,-90.0250,10.0,3.6,178.0,5.1,'11111222,11111222,11111222' 
LOOP,urn:ioos:station:wmo:lopl1:1,2017-02-05T16:21:00Z,28.8850,-90.0250,10.0,3.4,164.0,5.2,'11111222,11111222,11111222' 
LOOP,urn:ioos:station:wmo:lopl1:1,2017-02-05T17:21:00Z,28.8850,-90.0250,10.0,5.2,-9999.0,7.3,'11111222,99999999,11111222' 
LOOP,urn:ioos:station:wmo:lopl1:1,2017-02-05T18:21:00Z,28.8850,-90.0250,10.0,4.1,-9999.0,5.4,'11111222,99999999,11111222' 
LOOP,urn:ioos:station:wmo:lopl1:1,2017-02-05T19:21:00Z,28.8850,-90.0250,10.0,4.2,-9999.0,5.5,'11111222,99999999,11111222' 
LOOP,urn:ioos:station:wmo:lopl1:1,2017-02-05T20:21:00Z,28.8850,-90.0250,10.0,2.8,-9999.0,3.9,'11111222,99999999,11111222' 
LOOP,urn:ioos:station:wmo:lopl1:1,2017-02-05T21:21:00Z,28.8850,-90.0250,10.0,2.9,-9999.0,3.9,'11111222,99999999,11111222' 
LOOP,urn:ioos:station:wmo:lopl1:1,2017-02-05T22:21:00Z,28.8850,-90.0250,10.0,2.6,-9999.0,3.4,'11111222,99999999,11111222' 
LOOP,urn:ioos:station:wmo:lopl1:1,2017-02-05T23:21:00Z,28.8850,-90.0250,10.0,2.8,-9999.0,3.9,'11111222,99999999,11111222' 
LOOP,urn:ioos:station:wmo:lopl1:1,2017-02-06T00:21:00Z,28.8850,-90.0250,10.0,2.6,-9999.0,3.6,'11111222,99999999,11111222' 
LOOP,urn:ioos:station:wmo:lopl1:1,2017-02-06T01:21:00Z,28.8850,-90.0250,10.0,2.8,-9999.0,4.0,'11111222,99999999,11111222' 
LOOP,urn:ioos:station:wmo:lopl1:1,2017-02-06T02:21:00Z,28.8850,-90.0250,10.0,3.3,-9999.0,4.4,'11111222,99999999,11111222' 
LOOP,urn:ioos:station:wmo:lopl1:1,2017-02-06T03:21:00Z,28.8850,-90.0250,10.0,2.9,-9999.0,4.3,'11111222,99999999,11111222' 
LOOP,urn:ioos:station:wmo:lopl1:1,2017-02-06T04:21:00Z,28.8850,-90.0250,10.0,3.8,-9999.0,5.1,'11111222,99999999,11111222' 
LOOP,urn:ioos:station:wmo:lopl1:1,2017-02-06T05:21:00Z,28.8850,-90.0250,10.0,3.5,-9999.0,5.2,'11111222,99999999,11111222' 
LOOP,urn:ioos:station:wmo:lopl1:1,2017-02-06T06:21:00Z,28.8850,-90.0250,10.0,3.5,177.0,5.0,'11111222,11111222,11111222' 
LOOP,urn:ioos:station:wmo:lopl1:1,2017-02-06T07:26:00Z,28.8850,-90.0250,10.0,3.9,-9999.0,5.7,'11111222,99999999,11111222' 
LOOP,urn:ioos:station:wmo:lopl1:1,2017-02-06T08:26:00Z,28.8850,-90.0250,10.0,4.1,-9999.0,6.0,'11111222,99999999,11111222' 
LOOP,urn:ioos:station:wmo:lopl1:1,2017-02-06T09:26:00Z,28.8850,-90.0250,10.0,5.5,173.0,6.8,'11111222,11111222,11111222' 
LOOP,urn:ioos:station:wmo:lopl1:1,2017-02-06T10:26:00Z,28.8850,-90.0250,10.0,7.3,164.0,7.8,'11111222,11111222,11111222' 
LOOP,urn:ioos:station:wmo:lopl1:1,2017-02-06T11:26:00Z,28.8850,-90.0250,10.0,6.4,167.0,7.5,'11111222,11111222,11111222' 
LOOP,urn:ioos:station:wmo:lopl1:1,2017-02-06T12:26:00Z,28.8850,-90.0250,10.0,6.7,168.0,7.9,'11111222,11111222,11111222' 
LOOP,urn:ioos:station:wmo:lopl1:1,2017-02-06T13:26:00Z,28.8850,-90.0250,10.0,6.8,160.0,7.9,'11111222,11111222,11111222' 
LOOP,urn:ioos:station:wmo:lopl1:1,2017-02-06T14:26:00Z,28.8850,-90.0250,10.0,7.5,160.0,8.2,'11111222,11111222,11111222' 
LOOP,urn:ioos:station:wmo:lopl1:1,2017-02-06T15:26:00Z,28.8850,-90.0250,10.0,7.5,156.0,8.2,'11111222,11111222,11111222' 
LOOP,urn:ioos:station:wmo:lopl1:1,2017-02-06T16:26:00Z,28.8850,-90.0250,10.0,6.7,163.0,7.6,'11111222,11111222,11111222' 
LOOP,urn:ioos:station:wmo:lopl1:1,2017-02-06T17:26:00Z,28.8850,-90.0250,10.0,4.0,-9999.0,5.3,'11111222,99999999,11111222' 
LOOP,urn:ioos:station:wmo:lopl1:1,2017-02-06T18:26:00Z,28.8850,-90.0250,10.0,5.1,162.0,6.0,'11111222,11111222,11111222' 
LOOP,urn:ioos:station:wmo:lopl1:1,2017-02-06T19:26:00Z,28.8850,-90.0250,10.0,5.5,164.0,6.1,'11111222,11111222,11111222' 
LOOP,urn:ioos:station:wmo:lopl1:1,2017-02-06T20:31:00Z,28.8850,-90.0250,10.0,5.5,169.0,6.5,'11111222,11111222,11111222' 
LOOP,urn:ioos:station:wmo:lopl1:1,2017-02-06T21:31:00Z,28.8850,-90.0250,10.0,5.1,163.0,5.6,'11111222,11111222,11111222' 
LOOP,urn:ioos:station:wmo:lopl1:1,2017-02-06T22:31:00Z,28.8850,-90.0250,10.0,5.2,162.0,5.8,'11111222,11111222,11111222' 
LOOP,urn:ioos:station:wmo:lopl1:1,2017-02-06T23:31:00Z,28.8850,-90.0250,10.0,5.9,166.0,6.6,'11111222,11111222,11111222' 
LOOP,urn:ioos:station:wmo:lopl1:1,2017-02-07T00:31:00Z,28.8850,-90.0250,10.0,4.3,166.0,6.9,'11111222,11111222,11111222' 
LOOP,urn:ioos:station:wmo:lopl1:1,2017-02-07T01:31:00Z,28.8850,-90.0250,10.0,4.1,171.0,6.0,'11111222,11111222,11111222' 
LOOP,urn:ioos:station:wmo:lopl1:1,2017-02-07T02:31:00Z,28.8850,-90.0250,10.0,5.2,-9999.0,6.6,'11111222,99999999,11111222' 
LOOP,urn:ioos:station:wmo:lopl1:1,2017-02-07T03:31:00Z,28.8850,-90.0250,10.0,4.8,167.0,6.9,'11111222,11111222,11111222' 
LOOP,urn:ioos:station:wmo:lopl1:1,2017-02-07T04:31:00Z,28.8850,-90.0250,10.0,6.1,-9999.0,7.9,'11111222,99999999,11111222' 
LOOP,urn:ioos:station:wmo:lopl1:1,2017-02-07T05:31:00Z,28.8850,-90.0250,10.0,5.8,175.0,8.5,'11111222,11111222,11111222' 
LOOP,urn:ioos:station:wmo:lopl1:1,2017-02-07T06:31:00Z,28.8850,-90.0250,10.0,5.5,179.0,7.9,'11111222,11111222,11111222' 
LOOP,urn:ioos:station:wmo:lopl1:1,2017-02-07T07:31:00Z,28.8850,-90.0250,10.0,7.3,-9999.0,9.1,'11111222,99999999,11111222' 
LOOP,urn:ioos:station:wmo:lopl1:1,2017-02-07T08:36:00Z,28.8850,-90.0250,10.0,6.4,-9999.0,8.5,'11111222,99999999,11111222' 
LOOP,urn:ioos:station:wmo:lopl1:1,2017-02-07T09:36:00Z,28.8850,-90.0250,10.0,6.0,-9999.0,8.5,'11111222,99999999,11111222' 
LOOP,urn:ioos:station:wmo:lopl1:1,2017-02-07T10:36:00Z,28.8850,-90.0250,10.0,5.3,-9999.0,7.1,'11111222,99999999,11111222' 
LOOP,urn:ioos:station:wmo:lopl1:1,2017-02-07T11:36:00Z,28.8850,-90.0250,10.0,6.4,-9999.0,8.1,'11111222,99999999,11111222' 
LOOP,urn:ioos:station:wmo:lopl1:1,2017-02-07T12:36:00Z,28.8850,-90.0250,10.0,6.1,-9999.0,10.2,'11111222,99999999,11111222' 
LOOP,urn:ioos:station:wmo:lopl1:1,2017-02-07T13:36:00Z,28.8850,-90.0250,10.0,6.6,-9999.0,8.9,'11111222,99999999,11111222' 
LOOP,urn:ioos:station:wmo:lopl1:1,2017-02-07T14:36:00Z,28.8850,-90.0250,10.0,6.2,-9999.0,8.5,'11111222,99999999,11111222' 
LOOP,urn:ioos:station:wmo:lopl1:1,2017-02-07T15:36:00Z,28.8850,-90.0250,10.0,6.9,-9999.0,9.6,'11111222,99999999,11111222' 
LOOP,urn:ioos:station:wmo:lopl1:1,2017-02-07T16:36:00Z,28.8850,-90.0250,10.0,10.6,-9999.0,12.5,'11111222,99999999,11111222' 
LOOP,urn:ioos:station:wmo:lopl1:1,2017-02-07T17:36:00Z,28.8850,-90.0250,10.0,12.0,-9999.0,14.4,'11111222,99999999,11111222' 
LOOP,urn:ioos:station:wmo:lopl1:1,2017-02-07T21:41:00Z,28.8850,-90.0250,10.0,11.3,-9999.0,12.7,'11111222,99999999,11111222' 
LOOP,urn:ioos:station:wmo:lopl1:1,2017-02-07T23:41:00Z,28.8850,-90.0250,10.0,9.1,-9999.0,11.9,'11111222,99999999,11111222' 
LOOP,urn:ioos:station:wmo:lopl1:1,2017-02-08T13:46:00Z,28.8850,-90.0250,10.0,7.1,-9999.0,8.4,'11111222,99999999,11111222' 
LOOP,urn:ioos:station:wmo:lopl1:1,2017-02-08T14:46:00Z,28.8850,-90.0250,10.0,8.4,-9999.0,10.4,'11111222,99999999,11111222' 
LOOP,urn:ioos:station:wmo:lopl1:1,2017-02-08T15:46:00Z,28.8850,-90.0250,10.0,9.5,-9999.0,11.0,'11111222,99999999,11111222' 
LOOP,urn:ioos:station:wmo:lopl1:1,2017-02-08T16:46:00Z,28.8850,-90.0250,10.0,7.1,-9999.0,8.0,'11111222,99999999,11111222' 
LOOP,urn:ioos:station:wmo:lopl1:1,2017-02-08T17:46:00Z,28.8850,-90.0250,10.0,11.5,-9999.0,13.4,'11111222,99999999,11111222' 
LOOP,urn:ioos:station:wmo:lopl1:1,2017-02-08T18:46:00Z,28.8850,-90.0250,10.0,11.9,-9999.0,13.1,'11111222,99999999,11111222' 
LOOP,urn:ioos:station:wmo:lopl1:1,2017-02-08T19:46:00Z,28.8850,-90.0250,10.0,10.1,-9999.0,11.8,'11111222,99999999,11111222' 
LOOP,urn:ioos:station:wmo:lopl1:1,2017-02-08T20:46:00Z,28.8850,-90.0250,10.0,8.5,-9999.0,9.8,'11111222,99999999,11111222' 
LOOP,urn:ioos:station:wmo:lopl1:1,2017-02-08T21:46:00Z,28.8850,-90.0250,10.0,8.4,-9999.0,9.9,'11111222,99999999,11111222' 
LOOP,urn:ioos:station:wmo:lopl1:1,2017-02-08T22:46:00Z,28.8850,-90.0250,10.0,6.4,-9999.0,8.7,'11111222,99999999,11111222' 
LOOP,urn:ioos:station:wmo:lopl1:1,2017-02-08T23:51:00Z,28.8850,-90.0250,10.0,7.6,-9999.0,9.4,'11111222,99999999,11111222' 
LOOP,urn:ioos:station:wmo:lopl1:1,2017-02-09T00:51:00Z,28.8850,-90.0250,10.0,8.0,-9999.0,9.9,'11111222,99999999,11111222' 
LOOP,urn:ioos:station:wmo:lopl1:1,2017-02-09T01:51:00Z,28.8850,-90.0250,10.0,7.4,-9999.0,9.3,'11111222,99999999,11111222' 
LOOP,urn:ioos:station:wmo:lopl1:1,2017-02-09T02:51:00Z,28.8850,-90.0250,10.0,3.4,-9999.0,5.3,'11111222,99999999,11111222' 
LOOP,urn:ioos:station:wmo:lopl1:1,2017-02-09T03:51:00Z,28.8850,-90.0250,10.0,3.9,-9999.0,6.2,'11111222,99999999,11111222' 
LOOP,urn:ioos:station:wmo:lopl1:1,2017-02-09T04:51:00Z,28.8850,-90.0250,10.0,4.1,276.0,5.7,'11111222,11111222,11111222' 
LOOP,urn:ioos:station:wmo:lopl1:1,2017-02-09T05:51:00Z,28.8850,-90.0250,10.0,5.3,278.0,6.8,'11111222,11111222,11111222' 
LOOP,urn:ioos:station:wmo:lopl1:1,2017-02-09T06:51:00Z,28.8850,-90.0250,10.0,5.3,286.0,6.9,'11111222,11111222,11111222' 
LOOP,urn:ioos:station:wmo:lopl1:1,2017-02-09T07:51:00Z,28.8850,-90.0250,10.0,4.9,312.0,6.7,'11111222,11111222,11111222' 
LOOP,urn:ioos:station:wmo:lopl1:1,2017-02-09T08:51:00Z,28.8850,-90.0250,10.0,4.4,306.0,6.2,'11111222,11111222,11111222' 
LOOP,urn:ioos:station:wmo:lopl1:1,2017-02-09T09:51:00Z,28.8850,-90.0250,10.0,5.1,319.0,6.4,'11111222,11111222,11111222' 
LOOP,urn:ioos:station:wmo:lopl1:1,2017-02-09T10:51:00Z,28.8850,-90.0250,10.0,4.3,340.0,7.1,'11111222,11111222,11111222' 
LOOP,urn:ioos:station:wmo:lopl1:1,2017-02-09T11:51:00Z,28.8850,-90.0250,10.0,13.4,8.0,17.4,'11111222,11111222,11111222' 
LOOP,urn:ioos:station:wmo:lopl1:1,2017-02-09T12:56:00Z,28.8850,-90.0250,10.0,12.0,20.0,15.8,'11111222,11111222,11111222' 
LOOP,urn:ioos:station:wmo:lopl1:1,2017-02-09T13:56:00Z,28.8850,-90.0250,10.0,14.1,21.0,17.8,'11111222,11111222,11111222' 
LOOP,urn:ioos:station:wmo:lopl1:1,2017-02-09T14:56:00Z,28.8850,-90.0250,10.0,12.9,23.0,15.0,'11111222,11111222,11111222' 
LOOP,urn:ioos:station:wmo:lopl1:1,2017-02-09T15:56:00Z,28.8850,-90.0250,10.0,12.2,25.0,14.6,'11111222,11111222,11111222' 
LOOP,urn:ioos:station:wmo:lopl1:1,2017-02-09T16:56:00Z,28.8850,-90.0250,10.0,11.8,28.0,14.6,'11111222,11111222,11111222' 
LOOP,urn:ioos:station:wmo:lopl1:1,2017-02-09T17:56:00Z,28.8850,-90.0250,10.0,9.9,44.0,12.8,'11111222,11111222,11111222' 
LOOP,urn:ioos:station:wmo:lopl1:1,2017-02-09T18:56:00Z,28.8850,-90.0250,10.0,8.0,51.0,10.2,'11111222,11111222,11111222' 
LOOP,urn:ioos:station:wmo:lopl1:1,2017-02-09T19:56:00Z,28.8850,-90.0250,10.0,6.4,58.0,8.4,'11111222,11111222,11111222' 
LOOP,urn:ioos:station:wmo:lopl1:1,2017-02-09T20:56:00Z,28.8850,-90.0250,10.0,7.5,42.0,9.4,'11111222,11111222,11111222' 